Weather in Levashovo

Russia / Yaroslavl Oblast     57°38′40″N   40°31′42″E
temp.,
°C
wind,
m/s
gust,
m/s
humid.,
%
clouds,
%
prec.,
mm/h
press.,
hPa
HPBL,
m
26 september, sun
sun2600:00+8sse4990100 0.4 1003460
03:00+8se4792100 0.6 1003370
06:00+8ese3697100 1.2 1002321
09:00+8e3597100 1.4 1003352
12:00+9ene3595100 0.2 1006360
15:00+8ne4894100 0.4 1009484
18:00+9ne4894100 0.0 1012453
21:00+8n3795100 0.7 1014274
27 september, mon
mon2700:00+7n4995100 0.1 1016257
03:00+8n51194100 0.1 1018526
06:00+8nne51194100 0.1 1019616
09:00+9nne5108898 0.1 1021919
12:00+10nne6983100 0.2 1022922
15:00+8nne6987100 0.3 1023859
18:00+8nne5987100 0.0 1025947
21:00+7ne5985100 0.1 1026902
28 september, tue
tue2800:00+6ne488741 0.1 1028564
03:00+4ne499158 0.1 1029392
06:00+2ne38965 0.0 1031223
09:00+5ene477518 0.0 1032408
12:00+9ene345497 0.0 1032888
15:00+11nne344857 0.0 10321102
18:00+6nne236724 0.0 103326
21:00+4ne23765 0.0 103435
29 september, wed
wed2900:00+3nne22815 0.0 103514
03:00+2n22865 0.0 103524
06:00+2n228914 0.0 103528
09:00+6nne23695 0.0 1036265
12:00+10nne23545 0.0 1035695
15:00+12nnw235311 0.0 1034881
18:00+9n2370100 0.0 103445
21:00+8nnw2479100 0.0 1034110
30 september, thu
thu3000:00+8nnw2381100 0.0 103483
03:00+8nw248499 0.0 1034101
06:00+8nw2584100 0.0 1034167
09:00+9nnw357995 0.0 1034299
12:00+13nnw346738 0.0 1034802
15:00+15nnw346391 0.0 10331106
18:00+11nw347912 0.0 103361
21:00+8nw369353 0.0 1034116